Powrót do katalogu

STARLINK-4151

AktywnyŁącznośćVLEO
NORAD 53034·PAYLOAD·🇺🇸 United States

Wystrzelony Jul 7, 2022 z Cape Canaveral Space Force Station

Loading…

Następne Przeloty (najbliższe 24 godziny)

TLE

ŚwieżeSource: CelesTrak SupGP

Epoka: Sep 14, 2026, 22:10 UTC

1 53034C 22076BA  26257.92409722  .00000005  00000+0  17109-6 0  2574
2 53034  53.1579 293.7872 0001168  93.8859   6.2785 15.31671243    15

Śledź STARLINK-4151 w czasie rzeczywistym z AllMySat

Download on the App Store